Walnut Ridge, AR

5:27 AM CST on December 05, 2016 (GMT -0600)
Walnut Ridge Regional

Weather History for KARG - November, 2010

Change the Weather History Date:

Thursday, November 25, 2010

  Actual Average Record
Temperature  
Mean Temperature 54 °F -  
Max Temperature 68 °F 53 °F 73 °F (1998)
Min Temperature 37 °F 36 °F 24 °F (2005)
Degree Days  
Heating Degree Days 12    
Growing Degree Days 4 (Base 50)    
Moisture  
Dew Point 51 °F    
Average Humidity 81    
Maximum Humidity 94    
Minimum Humidity 73    
Precipitation  
Precipitation 0.78 in - - ()
Sea Level Pressure  
Sea Level Pressure 29.77 in    
Wind  
Wind Speed 18 mph (WSW)    
Max Wind Speed 26 mph    
Max Gust Speed 36 mph    
Visibility 10 miles    
Events Thunderstorm    
Averages and records for this station are not official NWS values.
T = Trace of Precipitation, MM = Missing Value Source: NWS Daily Summary

Daily Weather History Graph

Daily Weather History Graph

Search for Another Location

Airport or City:

Trip Planner

Search our weather history database for the weather conditions in past years. The results will help you decide how hot, cold, wet, or windy it might be!

Date:

Astronomy

Nov. 25, 2010 Rise Set
Actual Time 6:50 AM CST 4:50 PM CST
Civil Twilight 6:22 AM CST 5:18 PM CST
Nautical Twilight 5:51 AM CST 5:50 PM CST
Astronomical Twilight 5:20 AM CST 6:20 PM CST
Moon 8:47 PM CST (11/25) 10:20 AM CST (11/25)
Length of Visible Light 10h 56m
Length of Day
10h 00m
Waning Gibbous, 82% of the Moon is Illuminated
Nov 25
Waning Gibbous
Nov 28
Last Quarter
Dec 5
New
Dec 13
First Quarter
Dec 21
Full

Hourly Weather History & Observations

Time (CST) Temp. Windchill Dew Point Humidity Pressure Visibility Wind Dir Wind Speed Gust Speed Precip Events Conditions
12:15 AM 66.2 °F - 57.2 °F 73% 29.71 in 10.0 mi South 21.9 mph - N/A   Mostly Cloudy
12:35 AM 66.2 °F - 57.2 °F 73% 29.71 in 10.0 mi South 19.6 mph 27.6 mph N/A   Mostly Cloudy
12:55 AM 66.2 °F - 57.2 °F 73% 29.71 in 10.0 mi South 20.7 mph - N/A   Mostly Cloudy
1:15 AM 66.2 °F - 57.2 °F 73% 29.71 in 10.0 mi South 17.3 mph - N/A   Scattered Clouds
1:35 AM 66.2 °F - 57.2 °F 73% 29.72 in 10.0 mi SSW 13.8 mph - N/A   Overcast
1:55 AM 66.2 °F - 57.2 °F 73% 29.72 in 10.0 mi South 15.0 mph - N/A   Overcast
2:15 AM 64.4 °F - 57.2 °F 77% 29.73 in 10.0 mi SSW 11.5 mph - N/A   Overcast
2:35 AM 66.2 °F - 57.2 °F 73% 29.73 in 10.0 mi South 12.7 mph - N/A   Overcast
2:55 AM 66.2 °F - 59.0 °F 78% 29.72 in 10.0 mi South 15.0 mph - N/A   Overcast
3:15 AM 66.2 °F - 59.0 °F 78% 29.72 in 10.0 mi South 18.4 mph - N/A   Overcast
3:35 AM 66.2 °F - 59.0 °F 78% 29.71 in 10.0 mi South 18.4 mph - N/A   Overcast
3:55 AM 64.4 °F - 59.0 °F 83% 29.70 in 10.0 mi South 18.4 mph - N/A   Mostly Cloudy
4:15 AM 66.2 °F - 59.0 °F 78% 29.71 in 10.0 mi South 18.4 mph 23.0 mph N/A   Mostly Cloudy
4:35 AM 66.2 °F - 59.0 °F 78% 29.71 in 10.0 mi South 18.4 mph 24.2 mph N/A   Overcast
4:55 AM 66.2 °F - 59.0 °F 78% 29.70 in 10.0 mi South 19.6 mph 25.3 mph N/A   Overcast
5:15 AM 64.4 °F - 60.8 °F 88% 29.70 in 10.0 mi South 19.6 mph 26.5 mph N/A   Mostly Cloudy
5:35 AM 64.4 °F - 60.8 °F 88% 29.69 in 10.0 mi South 23.0 mph 27.6 mph N/A   Scattered Clouds
5:55 AM 66.2 °F - 60.8 °F 83% 29.69 in 10.0 mi South 23.0 mph 27.6 mph N/A   Mostly Cloudy
6:15 AM 66.2 °F - 60.8 °F 83% 29.68 in 10.0 mi South 24.2 mph 29.9 mph N/A   Mostly Cloudy
6:35 AM 66.2 °F - 60.8 °F 83% 29.70 in 10.0 mi South 23.0 mph 28.8 mph N/A   Overcast
6:55 AM 66.2 °F - 60.8 °F 83% 29.70 in 10.0 mi South 18.4 mph - N/A   Overcast
7:15 AM 64.4 °F - 60.8 °F 88% 29.71 in 10.0 mi South 16.1 mph - 0.01 in   Overcast
7:35 AM 66.2 °F - 60.8 °F 83% 29.71 in 10.0 mi South 19.6 mph - 0.01 in   Overcast
7:55 AM 66.2 °F - 60.8 °F 83% 29.70 in 10.0 mi South 17.3 mph - 0.01 in   Overcast
8:15 AM 66.2 °F - 60.8 °F 83% 29.69 in 10.0 mi South 21.9 mph 26.5 mph N/A   Overcast
8:35 AM 66.2 °F - 60.8 °F 83% 29.69 in 10.0 mi South 24.2 mph 28.8 mph N/A   Overcast
8:55 AM 66.2 °F - 62.6 °F 88% 29.70 in 10.0 mi South 21.9 mph 26.5 mph N/A   Mostly Cloudy
9:15 AM 66.2 °F - 62.6 °F 88% 29.70 in 10.0 mi South 20.7 mph 25.3 mph N/A   Overcast
9:35 AM 68.0 °F - 62.6 °F 83% 29.69 in 10.0 mi South 26.5 mph 29.9 mph N/A   Overcast
9:55 AM 66.2 °F - 60.8 °F 83% 29.71 in 10.0 mi WSW 4.6 mph 27.6 mph N/A   Overcast
10:15 AM 64.4 °F - 59.0 °F 83% 29.71 in 10.0 mi West 8.1 mph - N/A   Overcast
10:35 AM 62.6 °F - 59.0 °F 88% 29.72 in 10.0 mi West 9.2 mph - 0.03 in   Overcast
10:55 AM 62.6 °F - 60.8 °F 94% 29.73 in 10.0 mi WNW 18.4 mph 23.0 mph 0.05 in   Overcast
11:15 AM 57.2 °F - 51.8 °F 82% 29.74 in 10.0 mi NNW 23.0 mph - N/A   Overcast
11:35 AM 53.6 °F - 46.4 °F 77% 29.76 in 10.0 mi NW 26.5 mph 35.7 mph N/A   Overcast
11:55 AM 48.2 °F - 42.8 °F 82% 29.75 in 10.0 mi NNW 20.7 mph 27.6 mph N/A   Overcast
12:15 PM 48.2 °F - 42.8 °F 82% 29.76 in 10.0 mi NW 19.6 mph 26.5 mph N/A Thunderstorm Overcast
12:35 PM 46.4 °F 40.1 °F 42.8 °F 87% 29.79 in 9.0 mi NW 15.0 mph - 0.01 in Thunderstorm Thunderstorm
12:55 PM 46.4 °F 41.1 °F 41.0 °F 81% 29.80 in 10.0 mi WNW 11.5 mph - 0.16 in Thunderstorm Thunderstorm
1:15 PM 44.6 °F 37.4 °F 41.0 °F 87% 29.80 in 9.0 mi NW 16.1 mph - 0.13 in   Overcast
1:35 PM 44.6 °F 37.4 °F 39.2 °F 81% 29.84 in 10.0 mi WNW 16.1 mph - 0.21 in   Overcast
1:55 PM 44.6 °F 38.1 °F 39.2 °F 81% 29.84 in 9.0 mi NW 13.8 mph - 0.25 in   Overcast
2:15 PM 42.8 °F 34.8 °F 39.2 °F 87% 29.83 in 10.0 mi NW 17.3 mph - 0.09 in   Overcast
2:35 PM 42.8 °F 35.1 °F 37.4 °F 81% 29.86 in 10.0 mi NW 16.1 mph - 0.13 in   Overcast
2:55 PM 42.8 °F 35.1 °F 39.2 °F 87% 29.85 in 7.0 mi NNW 16.1 mph - 0.15 in   Overcast
3:15 PM 42.8 °F 35.8 °F 37.4 °F 81% 29.87 in 10.0 mi NNW 13.8 mph - N/A   Overcast
3:35 PM 42.8 °F 35.1 °F 37.4 °F 81% 29.89 in 10.0 mi NNW 16.1 mph - N/A   Overcast
3:55 PM 42.8 °F 34.0 °F 37.4 °F 81% 29.88 in 10.0 mi NNW 20.7 mph - N/A   Overcast
4:15 PM 42.8 °F 34.0 °F 37.4 °F 81% 29.89 in 10.0 mi North 20.7 mph 24.2 mph 0.01 in   Overcast
4:35 PM 42.8 °F 34.0 °F 37.4 °F 81% 29.92 in 10.0 mi NNW 20.7 mph 24.2 mph 0.01 in   Overcast
4:55 PM 41.0 °F 31.4 °F 35.6 °F 81% 29.92 in 10.0 mi NNW 21.9 mph 29.9 mph 0.05 in   Mostly Cloudy
5:15 PM 39.2 °F 29.6 °F 35.6 °F 87% 30.00 in 10.0 mi NW 19.6 mph 25.3 mph 0.03 in   Overcast
5:35 PM 39.2 °F 30.2 °F 33.8 °F 81% 29.99 in 10.0 mi NNW 17.3 mph - 0.06 in   Overcast
5:55 PM 39.2 °F 29.3 °F 33.8 °F 81% 29.97 in 10.0 mi NNW 20.7 mph - 0.08 in   Overcast
6:15 PM 37.4 °F 29.3 °F 30.2 °F 75% 29.99 in 10.0 mi North 12.7 mph - 0.03 in   Overcast
6:35 PM 37.4 °F 29.8 °F 30.2 °F 75% 30.00 in 10.0 mi North 11.5 mph - 0.03 in   Overcast
6:55 PM 37.4 °F 29.3 °F 30.2 °F 75% 30.04 in 10.0 mi NNW 12.7 mph - 0.04 in   Overcast
7:15 PM 37.4 °F 30.8 °F 28.4 °F 70% 30.06 in 10.0 mi NNW 9.2 mph - N/A   Overcast
7:35 PM 37.4 °F 30.3 °F 28.4 °F 70% 30.03 in 10.0 mi NNW 10.4 mph - N/A   Overcast
7:55 PM 37.4 °F 29.3 °F 28.4 °F 70% 30.04 in 10.0 mi NNW 12.7 mph - N/A   Overcast
8:15 PM 37.4 °F 28.5 °F 28.4 °F 70% 30.05 in 10.0 mi NNW 15.0 mph - N/A   Overcast
8:35 PM 37.4 °F 29.8 °F 26.6 °F 65% 30.06 in 10.0 mi NNW 11.5 mph - N/A   Overcast
8:55 PM 37.4 °F 29.8 °F 26.6 °F 65% 30.06 in 10.0 mi North 11.5 mph - N/A   Scattered Clouds
9:15 PM 35.6 °F 27.1 °F 24.8 °F 65% 30.08 in 10.0 mi North 12.7 mph - N/A   Scattered Clouds
9:55 PM 35.6 °F 26.6 °F 23.0 °F 60% 30.12 in 10.0 mi NNW 13.8 mph - N/A   Clear
10:15 PM 35.6 °F 25.9 °F 21.2 °F 56% 30.14 in 10.0 mi NNW 16.1 mph - N/A   Clear
10:35 PM 35.6 °F 28.6 °F 21.2 °F 56% 30.15 in 10.0 mi NNW 9.2 mph - N/A   Clear
10:55 PM 33.8 °F 24.8 °F 19.4 °F 56% 30.15 in 10.0 mi NNW 12.7 mph - N/A   Clear
11:15 PM 33.8 °F 25.8 °F 19.4 °F 56% 30.17 in 10.0 mi NNW 10.4 mph - N/A   Clear
11:35 PM 33.8 °F 27.0 °F 19.4 °F 56% 30.18 in 10.0 mi NNW 8.1 mph - N/A   Clear
11:55 PM 32.0 °F 26.4 °F 19.4 °F 60% 30.18 in 10.0 mi NNW 5.8 mph - N/A   Clear